����,�C�@��,���@�x,���@��,���@��,���@��,�ϐ�[,�ϐ�d��1,�ϐ�d��2,�ϐ�d��3,�J�@��,�~��o��,�~�ይ�x�i��j,�~�ይ�x�i���j,�~�ይ�x�i���j,���,�Z��~����1,�Z��~����2,�Z��~����3,�Z��~����4,�J�ᔻ��,�Z���T���x
����,��,��,kw/�u,��,m/s,cm,kg/�u,kg/�u,kg/�u,mm,1=�L_0=��,1=�L_0=��,1=�L_0=��,1=�L_0=��,p,p,p,p,p,��,��
2014-12-01 00:00:00,12.70,87.10,0.000,159.80,0.24,0.0,0.54,0.00,-213.27,0.0,0,0,0,0,0,0.00,0.00,0.00,0.00,12.16,-179.70
2014-12-01 00:10:00,12.46,87.50,0.000,329.90,0.18,0.0,0.54,0.00,-212.93,0.0,0,0,0,0,0,0.00,0.00,0.00,0.00,12.00,-179.30
2014-12-01 00:20:00,12.38,88.50,0.000,338.70,0.18,0.0,-0.47,0.00,-211.58,0.0,0,0,0,0,0,0.00,0.00,0.00,0.00,11.92,-179.20
2014-12-01 00:30:00,12.43,89.40,0.000,31.57,0.20,0.0,0.54,0.00,-218.69,0.0,0,0,0,0,0,0.00,0.00,0.00,0.00,11.84,-179.20
2014-12-01 00:40:00,12.38,89.40,0.000,79.75,0.23,0.0,0.54,0.00,-217.67,0.0,0,0,0,0,0,0.00,0.00,0.00,0.00,11.67,-179.50
2014-12-01 00:50:00,12.45,89.40,0.000,359.90,0.19,0.0,0.54,0.00,-215.98,0.0,0,0,0,0,0,0.00,0.00,0.00,0.00,11.74,-179.50
2014-12-01 01:00:00,12.50,89.20,0.000,319.90,0.20,0.0,-0.47,0.00,-215.30,0.0,0,0,0,0,0,0.00,0.00,0.00,0.00,11.75,-179.60
2014-12-01 01:10:00,12.38,89.30,0.000,325.80,0.19,0.0,-0.14,0.00,-213.61,0.0,0,0,0,0,0,0.00,0.00,0.00,0.00,11.67,-179.90
2014-12-01 01:20:00,12.38,89.70,0.000,309.40,0.12,0.0,1.22,0.00,-212.93,0.0,0,0,0,0,0,0.00,0.00,0.00,0.00,11.75,-180.20
2014-12-01 01:30:00,12.21,90.40,0.000,301.80,0.20,0.0,-0.81,0.00,-213.61,0.0,0,0,0,0,0,0.00,0.00,0.00,0.00,11.58,-179.30
2014-12-01 01:40:00,12.21,90.80,0.000,342.90,0.18,0.0,-0.14,0.00,-215.64,0.0,0,0,0,0,0,0.00,0.00,0.00,0.00,11.50,-179.80
2014-12-01 01:50:00,12.29,90.70,0.000,5.54,0.14,0.0,-0.81,0.00,-202.78,0.0,0,0,0,0,0,0.00,0.00,0.00,0.00,11.50,-179.40
2014-12-01 02:00:00,12.21,90.60,0.000,23.96,0.20,0.0,0.20,0.00,-215.64,0.0,0,0,0,0,0,0.00,0.00,0.00,0.00,11.59,-179.60
2014-12-01 02:10:00,12.29,90.80,0.000,326.30,0.22,0.0,0.20,0.00,-215.30,0.0,0,0,0,0,0,0.00,0.00,0.00,0.00,11.75,-179.40
2014-12-01 02:20:00,12.22,90.60,0.001,234.20,0.18,0.0,-0.14,0.00,-215.64,0.0,0,0,0,0,0,0.00,0.00,0.00,0.00,11.75,-179.70
2014-12-01 02:30:00,12.14,91.00,0.001,167.90,0.20,0.0,0.20,0.00,-214.96,0.0,0,0,0,0,0,0.00,0.00,0.00,0.00,11.59,-179.10
2014-12-01 02:40:00,12.05,91.70,0.000,191.40,0.20,0.0,0.54,0.00,-213.95,0.0,0,0,0,0,0,0.00,0.00,0.00,0.00,11.59,-178.40
2014-12-01 02:50:00,11.97,92.00,0.000,203.10,0.18,0.0,-0.14,0.00,-213.27,0.0,0,0,0,0,0,0.00,0.00,0.00,0.00,11.60,-178.80
2014-12-01 03:00:00,11.97,92.00,0.000,149.40,0.12,0.0,-0.47,0.00,-212.93,0.0,0,0,0,0,0,0.00,0.00,0.00,0.00,11.59,-179.40
2014-12-01 03:10:00,11.97,92.20,0.000,151.50,0.24,0.0,-0.81,0.00,-212.59,0.0,0,0,0,0,0,0.00,0.00,0.00,0.00,11.67,-179.40
2014-12-01 03:20:00,11.96,92.00,0.000,155.00,0.19,0.0,0.88,0.00,-215.30,0.0,0,0,0,0,0,0.00,0.00,0.00,0.00,11.63,-179.20
2014-12-01 03:30:00,11.97,92.20,0.000,163.50,0.26,0.0,0.54,0.00,-216.66,0.0,0,0,0,0,0,0.00,0.00,0.00,0.00,11.43,-179.10
2014-12-01 03:40:00,11.88,92.50,0.000,139.30,0.20,0.0,-0.14,0.00,-215.98,0.0,0,0,0,0,0,0.00,0.00,0.00,0.00,11.51,-179.40
2014-12-01 03:50:00,12.05,92.50,0.000,139.20,0.23,0.0,1.22,0.00,-215.64,0.0,0,0,0,0,0,0.00,0.00,0.00,0.00,11.47,-179.80
2014-12-01 04:00:00,11.89,92.50,0.000,123.60,0.19,0.0,0.54,0.00,-213.61,0.0,0,0,0,0,0,0.00,0.00,0.00,0.00,11.42,-179.50
2014-12-01 04:10:00,11.97,92.50,0.000,345.90,0.14,0.0,0.54,0.00,-211.92,0.0,0,0,0,0,0,0.00,0.00,0.00,0.00,11.43,-179.90
2014-12-01 04:20:00,12.06,92.20,0.000,242.70,0.23,0.0,0.54,0.00,-210.90,0.0,0,0,0,0,0,0.00,0.00,0.00,0.00,11.60,-179.50
2014-12-01 04:30:00,11.97,91.90,0.000,306.60,0.19,0.0,0.54,0.00,-210.56,0.0,0,0,0,0,0,0.00,0.00,0.00,0.00,11.43,-179.30
2014-12-01 04:40:00,11.97,92.00,0.000,320.40,0.20,0.0,-0.47,0.00,-211.24,0.0,0,0,0,0,0,0.00,0.00,0.00,0.00,11.47,-179.30
2014-12-01 04:50:00,12.05,91.90,0.000,213.90,0.20,0.0,0.20,0.00,-213.27,0.0,0,0,0,0,0,0.00,0.00,0.00,0.00,11.59,-179.30
2014-12-01 05:00:00,11.89,91.80,0.000,297.30,0.26,0.0,1.22,0.00,-215.64,0.0,0,0,0,0,0,0.00,0.00,0.00,0.00,11.43,-179.30
2014-12-01 05:10:00,12.02,92.00,0.000,306.60,0.15,0.0,-0.81,0.00,-213.61,0.0,0,0,0,0,0,0.00,0.00,0.00,0.00,11.51,-179.30
2014-12-01 05:20:00,11.89,92.10,0.000,215.30,0.18,0.0,-0.14,0.00,-212.25,0.0,0,0,0,0,0,0.00,0.00,0.00,0.00,11.47,-179.20
2014-12-01 05:30:00,11.93,92.10,0.000,202.10,0.20,0.0,1.22,0.00,-211.92,0.0,0,0,0,0,0,0.00,0.00,0.00,0.00,11.43,-179.60
2014-12-01 05:40:00,11.88,92.30,0.000,122.30,0.20,0.0,-0.14,0.00,-210.56,0.0,0,0,0,0,0,0.00,0.00,0.00,0.00,11.13,-179.60
2014-12-01 05:50:00,11.71,92.60,0.000,117.50,0.19,0.0,-0.14,0.00,-209.55,0.0,0,0,0,0,0,0.00,0.00,0.00,0.00,11.09,-179.40
2014-12-01 06:00:00,11.80,92.70,0.000,118.00,0.28,0.0,0.54,0.00,-209.88,0.0,0,0,0,0,0,0.00,0.00,0.00,0.00,10.77,-179.60
2014-12-01 06:10:00,11.65,92.90,0.000,187.10,0.20,0.0,-0.81,0.00,-211.92,0.0,0,0,0,0,0,0.00,0.00,0.00,0.00,10.73,-179.60
2014-12-01 06:20:00,11.60,92.80,0.001,191.70,0.18,0.0,-0.14,0.00,-214.62,0.0,0,0,0,0,0,0.00,0.00,0.00,0.00,10.93,-179.50
2014-12-01 06:30:00,11.63,93.10,0.001,180.00,0.24,0.0,-0.81,0.00,-216.66,0.0,0,0,0,0,0,0.00,0.00,0.00,0.00,11.01,-179.60
2014-12-01 06:40:00,11.55,93.20,0.001,175.50,0.16,0.0,-0.14,0.00,-215.98,0.0,0,0,0,0,0,0.00,0.00,0.00,0.00,11.09,-179.90
2014-12-01 06:50:00,11.54,93.10,0.005,183.30,0.18,0.0,0.54,0.00,-214.62,0.0,0,0,0,0,0,0.00,0.00,0.00,0.00,11.00,-180.00
2014-12-01 07:00:00,11.55,93.10,0.010,194.30,0.24,0.0,0.54,0.00,-213.95,0.0,0,0,0,0,0,0.00,0.00,0.00,0.00,10.93,-179.90
2014-12-01 07:10:00,11.52,93.00,0.018,175.70,0.27,0.0,0.54,0.00,-213.61,0.0,0,0,0,0,0,0.00,0.00,0.00,0.00,10.98,-179.90
2014-12-01 07:20:00,11.60,93.10,0.026,202.10,0.28,0.0,-0.81,0.00,-212.25,0.0,0,0,0,0,0,0.00,0.00,0.00,0.00,11.14,-4.24
2014-12-01 07:30:00,11.47,93.00,0.032,172.60,0.24,0.0,-0.47,0.00,-212.25,0.0,0,0,0,0,0,0.00,0.00,0.00,0.00,11.38,-4.65
2014-12-01 07:40:00,11.63,93.10,0.033,108.80,0.32,0.0,0.88,0.00,-211.92,0.0,0,0,0,0,0,0.00,0.00,0.00,0.00,11.50,-4.45
2014-12-01 07:50:00,11.47,93.00,0.058,131.90,0.16,0.0,-0.14,0.00,-212.93,0.0,0,0,0,0,0,0.00,0.00,0.00,0.00,11.39,-4.36
2014-12-01 08:00:00,11.80,93.10,0.060,230.10,0.33,0.0,0.54,0.00,-213.61,0.0,0,0,0,0,0,0.00,0.00,0.00,0.00,11.96,-4.57
2014-12-01 08:10:00,11.80,92.30,0.040,244.20,0.27,0.0,-0.81,0.00,-211.24,0.0,0,0,0,0,0,0.00,0.00,0.00,0.00,12.08,-4.53
2014-12-01 08:20:00,12.00,91.80,0.034,175.10,0.31,0.0,0.88,0.00,-207.85,0.0,0,0,0,0,0,0.00,0.00,0.00,0.00,12.08,-4.49
2014-12-01 08:30:00,12.05,90.90,0.038,158.90,0.22,0.0,0.54,0.00,-206.16,0.0,0,0,0,0,0,0.00,0.00,0.00,0.00,12.17,-4.45
2014-12-01 08:40:00,12.05,90.90,0.042,81.90,0.29,0.0,-0.47,0.00,-203.79,0.0,0,0,0,0,0,0.00,0.00,0.00,0.00,12.25,-4.40
2014-12-01 08:50:00,12.09,90.70,0.026,353.60,0.25,0.0,0.20,0.00,-201.76,0.0,0,0,0,0,0,0.00,0.00,0.00,0.00,12.13,-4.32
2014-12-01 09:00:00,12.21,89.60,0.014,25.11,0.21,0.0,1.22,0.00,-199.05,0.0,0,0,0,0,0,0.00,0.00,0.00,0.00,12.16,-4.74
2014-12-01 09:10:00,12.24,89.90,0.018,98.20,0.26,0.0,0.54,0.00,-199.05,0.0,0,0,0,0,0,0.00,0.00,0.00,0.00,12.07,-4.98
2014-12-01 09:20:00,12.38,88.80,0.022,85.10,0.22,0.0,0.54,0.00,-198.04,0.0,0,0,0,0,0,0.00,0.00,0.00,0.00,12.25,-4.82
2014-12-01 09:30:00,12.62,88.80,0.038,115.60,0.19,0.0,0.88,0.00,-197.36,0.0,0,0,0,0,0,0.00,0.00,0.00,0.00,12.36,-4.41
2014-12-01 09:40:00,12.61,87.50,0.049,115.90,0.22,0.0,0.54,0.00,-197.02,0.0,0,0,0,0,0,0.00,0.00,0.00,0.00,12.15,-4.62
2014-12-01 09:50:00,12.94,87.50,0.075,81.60,0.21,0.0,-0.14,0.00,-196.01,0.0,0,0,0,0,0,0.00,0.00,0.00,0.00,12.73,-4.13
2014-12-01 10:00:00,13.03,87.40,0.062,18.04,0.22,0.0,-0.14,0.00,-194.31,0.0,0,0,0,0,0,0.00,0.00,0.00,0.00,13.31,-4.58
2014-12-01 10:10:00,13.19,86.20,0.044,351.10,0.26,0.0,0.54,0.00,-190.59,0.0,0,0,0,0,0,0.00,0.00,0.00,0.00,13.35,-4.29
2014-12-01 10:20:00,13.53,85.40,0.043,203.50,0.23,0.0,0.54,0.00,-188.90,0.0,0,0,0,0,0,0.00,0.00,0.00,0.00,13.60,-4.16
2014-12-01 10:30:00,13.94,83.10,0.038,143.30,0.27,0.0,-0.14,0.00,-187.20,0.0,0,0,0,0,0,0.00,0.00,0.00,0.00,13.97,-4.13
2014-12-01 10:40:00,13.89,84.10,0.074,345.70,0.18,0.0,1.22,0.00,-188.22,0.0,0,0,0,0,0,0.00,0.00,0.00,0.00,14.05,-3.56
2014-12-01 10:50:00,14.01,84.00,0.084,14.12,0.20,0.0,0.54,0.00,-183.48,0.0,0,0,0,0,0,0.00,0.00,0.00,0.00,14.63,-3.19
2014-12-01 11:00:00,14.51,82.20,0.039,278.50,0.20,0.0,1.22,0.00,-182.80,0.0,0,0,0,0,0,0.00,0.00,0.00,0.00,14.67,-3.23
2014-12-01 11:10:00,14.67,81.20,0.018,209.80,0.21,0.0,-0.14,0.00,-181.11,0.0,0,0,0,0,0,0.00,0.00,0.00,0.00,14.63,-3.35
2014-12-01 11:20:00,14.68,81.00,0.012,204.70,0.22,0.0,-0.47,0.00,-180.09,0.0,0,0,0,0,0,0.00,0.00,0.00,0.00,14.46,-2.49
2014-12-01 11:30:00,15.17,78.30,0.015,259.20,0.19,0.0,0.20,0.00,-178.74,0.0,0,0,0,0,0,0.00,0.00,0.00,0.00,14.46,-1.83
2014-12-01 11:40:00,16.37,74.92,0.015,235.30,1.54,0.0,0.88,0.00,-175.36,0.5,0,0,0,0,0,0.00,0.00,0.00,0.00,14.79,-1.99
2014-12-01 11:50:00,16.16,79.49,0.016,240.50,0.95,0.0,0.54,0.00,-176.71,0.5,0,0,0,0,0,0.00,0.00,0.00,0.00,14.54,2.64
2014-12-01 12:00:00,15.95,83.20,0.037,194.30,1.26,0.0,0.88,0.00,-174.00,0.5,0,0,0,0,0,455.00,436.00,338.00,463.00,14.38,3.51
2014-12-01 12:10:00,15.91,84.20,0.033,189.50,0.76,0.0,1.22,0.00,-173.32,0.5,0,0,0,0,0,469.00,439.00,403.00,479.00,14.46,3.55
2014-12-01 12:20:00,16.00,83.90,0.037,184.40,1.13,0.0,1.22,0.00,-171.29,0.5,0,0,0,0,0,303.00,298.00,281.00,343.00,14.46,3.55
2014-12-01 12:30:00,15.62,86.60,0.025,142.90,1.21,0.0,0.54,0.00,-172.65,0.5,0,0,0,0,0,276.00,260.00,233.00,290.00,14.46,3.55
2014-12-01 12:40:00,15.91,84.10,0.017,153.50,0.86,0.0,0.54,0.00,-170.95,0.0,0,0,0,0,0,235.00,233.00,208.00,241.00,14.38,3.67
2014-12-01 12:50:00,15.83,84.00,0.020,210.20,1.68,0.0,0.88,0.00,-168.92,0.5,0,0,0,0,0,197.00,199.00,162.00,229.00,14.38,4.04
2014-12-01 13:00:00,16.08,83.80,0.014,210.60,2.25,0.0,1.22,0.00,-167.23,0.0,0,0,0,0,0,171.00,156.00,138.00,157.00,14.46,4.00
2014-12-01 13:10:00,16.04,84.40,0.021,216.90,2.41,0.0,0.54,0.00,-166.22,0.0,0,0,0,0,0,175.00,174.00,161.00,182.00,14.63,4.04
2014-12-01 13:20:00,15.91,84.80,0.013,233.80,3.48,0.0,0.54,0.00,-163.17,1.0,0,0,0,0,0,275.00,264.00,233.00,289.00,14.46,4.08
2014-12-01 13:30:00,15.75,81.90,0.017,218.00,3.48,0.0,0.54,0.00,-158.43,0.5,0,0,0,0,0,571.00,592.00,503.00,590.00,14.05,4.33
2014-12-01 13:40:00,15.17,81.50,0.030,224.20,4.13,0.0,0.88,0.00,-157.75,0.0,0,0,0,0,0,304.00,279.00,268.00,315.00,13.47,4.49
2014-12-01 13:50:00,15.05,83.00,0.018,217.60,2.14,0.0,1.22,0.00,-161.48,0.0,0,0,0,0,0,176.00,169.00,151.00,183.00,13.80,4.57
2014-12-01 14:00:00,15.00,84.80,0.007,225.50,1.59,0.0,1.22,0.00,-161.48,0.5,0,0,0,0,0,125.00,144.00,137.00,155.00,13.72,4.37
2014-12-01 14:10:00,14.59,87.90,0.007,238.60,0.47,0.0,1.90,0.00,-160.12,2.0,0,0,0,0,0,1172.00,869.00,1028.00,1159.00,13.55,4.41
2014-12-01 14:20:00,14.51,88.70,0.011,224.00,0.22,0.0,2.24,0.00,-160.80,1.0,0,0,0,0,0,1181.00,732.00,1037.00,1211.00,13.47,4.41
2014-12-01 14:30:00,14.30,88.30,0.005,206.70,0.25,0.0,1.90,0.00,-160.80,1.0,0,0,0,0,0,698.00,0.00,620.00,751.00,13.39,4.33
2014-12-01 14:40:00,14.34,89.00,0.009,215.10,0.29,0.0,1.90,0.00,-160.80,1.0,0,0,0,0,0,696.00,0.00,619.00,705.00,13.39,4.41
2014-12-01 14:50:00,13.77,87.30,0.001,319.10,0.47,0.0,1.90,0.00,-160.12,1.5,0,0,0,0,0,1172.00,678.00,1023.00,1203.00,12.60,4.37
2014-12-01 15:00:00,13.52,87.10,0.007,290.20,0.49,0.0,2.57,0.00,-162.49,1.0,0,0,0,0,0,700.00,62.00,584.00,703.00,12.31,4.49
2014-12-01 15:10:00,13.44,86.20,0.008,229.90,0.30,0.0,1.90,0.00,-163.85,0.5,0,0,0,0,0,457.00,0.00,421.00,474.00,12.23,4.41
2014-12-01 15:20:00,13.52,86.40,0.011,215.60,0.24,0.0,1.90,0.00,-165.20,0.5,0,0,0,0,0,407.00,0.00,351.00,445.00,12.23,4.45
2014-12-01 15:30:00,13.64,84.70,0.011,216.10,0.46,0.0,1.90,0.00,-165.54,0.0,0,0,0,0,0,251.00,0.00,230.00,261.00,12.19,4.33
2014-12-01 15:40:00,13.60,84.30,0.004,238.10,0.21,0.0,1.22,0.00,-165.88,0.0,0,0,0,0,0,149.00,0.00,135.00,130.00,12.23,4.37
2014-12-01 15:50:00,13.73,82.80,0.005,223.50,0.24,0.0,1.56,0.00,-166.89,0.0,0,0,0,0,0,100.00,0.00,91.00,129.00,12.44,4.45
2014-12-01 16:00:00,13.69,81.50,0.003,237.00,0.29,0.0,1.22,0.00,-166.55,0.0,0,0,0,0,0,97.00,0.00,68.00,77.00,12.24,4.30
2014-12-01 16:10:00,13.74,82.50,0.002,189.00,0.21,0.0,0.54,0.00,-166.22,0.0,0,0,0,0,0,27.00,0.00,68.00,52.00,12.41,4.34
2014-12-01 16:20:00,13.53,84.20,0.001,159.30,0.31,0.0,0.54,0.00,-165.20,0.5,0,0,0,0,0,49.00,23.00,46.00,52.00,12.24,4.38
2014-12-01 16:30:00,13.36,85.80,0.001,169.80,0.24,0.0,1.22,0.00,-164.86,0.5,0,0,0,0,0,100.00,153.00,68.00,103.00,12.08,4.22
2014-12-01 16:40:00,13.24,87.30,0.000,213.40,0.20,0.0,0.88,0.00,-163.85,1.0,0,0,0,0,0,704.00,701.00,617.00,742.00,11.96,4.30
2014-12-01 16:50:00,13.11,84.20,0.000,246.70,1.50,0.0,1.90,0.00,-162.49,0.5,0,0,0,0,0,760.00,723.00,672.00,791.00,11.58,4.21
2014-12-01 17:00:00,12.61,85.70,0.000,258.80,0.59,0.0,2.23,0.00,-164.86,1.0,0,0,0,0,0,458.00,457.00,410.00,499.00,11.33,4.49
2014-12-01 17:10:00,12.58,86.80,0.001,231.40,0.49,0.0,2.91,0.00,-163.85,0.5,0,0,0,0,0,611.00,586.00,534.00,620.00,11.46,4.38
2014-12-01 17:20:00,12.71,84.50,0.000,230.30,2.30,0.0,2.91,0.00,-162.83,1.0,0,0,0,0,0,933.00,907.00,830.00,978.00,11.26,4.43
2014-12-01 17:30:00,13.00,80.70,0.001,221.40,3.42,0.0,3.25,0.00,-162.83,0.0,0,0,0,0,0,403.00,377.00,350.00,420.00,11.38,4.22
2014-12-01 17:40:00,12.70,83.00,0.000,232.20,2.02,0.0,3.25,0.00,-164.52,0.0,0,0,0,0,0,173.00,166.00,160.00,180.00,11.17,4.30
2014-12-01 17:50:00,12.42,81.50,0.000,237.90,1.94,0.0,2.91,0.00,-165.20,0.5,0,0,0,0,0,124.00,132.00,90.00,129.00,11.09,4.26
2014-12-01 18:00:00,12.38,81.00,0.001,233.30,0.98,0.0,2.57,0.00,-166.55,0.0,0,0,0,0,0,74.00,66.00,68.00,77.00,11.09,4.18
2014-12-01 18:10:00,12.71,79.08,0.001,228.50,0.62,0.0,1.90,0.00,-166.89,0.0,0,0,0,0,0,49.00,49.00,46.00,51.00,11.10,4.18
2014-12-01 18:20:00,12.62,78.23,0.000,246.00,0.32,0.0,1.22,0.00,-168.25,0.0,0,0,0,0,0,50.00,33.00,45.00,26.00,10.89,4.22
2014-12-01 18:30:00,12.46,77.89,0.000,238.80,0.56,0.0,1.22,0.00,-167.91,0.0,0,0,0,0,0,24.00,33.00,46.00,52.00,11.14,4.14
2014-12-01 18:40:00,12.17,78.37,0.000,246.00,0.80,0.0,1.22,0.00,-167.91,0.0,0,0,0,0,0,25.00,17.00,23.00,26.00,10.26,4.18
2014-12-01 18:50:00,11.72,81.60,0.000,288.60,0.20,0.0,1.22,0.00,-169.26,0.0,0,0,0,0,0,50.00,33.00,23.00,25.00,10.14,4.18
2014-12-01 19:00:00,11.47,82.50,0.000,284.60,0.21,0.0,0.54,0.00,-171.29,0.0,0,0,0,0,0,25.00,33.00,45.00,26.00,9.90,4.10
2014-12-01 19:10:00,11.63,79.15,0.000,239.40,0.26,0.0,0.54,0.00,-171.29,0.0,0,0,0,0,0,49.00,49.00,23.00,52.00,9.89,4.17
2014-12-01 19:20:00,11.55,79.21,0.001,230.10,0.38,0.0,0.20,0.00,-172.31,0.5,0,0,0,0,0,25.00,33.00,46.00,52.00,9.85,4.14
2014-12-01 19:30:00,11.14,84.90,0.001,233.80,1.11,0.0,1.56,0.00,-174.00,2.0,0,0,0,0,0,1537.00,1425.00,1387.00,1560.00,9.82,4.18
2014-12-01 19:40:00,10.73,81.30,0.000,219.40,1.64,0.0,2.23,0.00,-175.36,1.5,0,0,0,0,0,879.00,257.00,783.00,910.00,9.12,3.98
2014-12-01 19:50:00,10.82,80.70,0.001,223.10,2.44,0.0,4.60,0.00,-178.40,1.0,0,0,0,0,0,1596.00,1263.00,1442.00,1566.00,9.04,3.90
2014-12-01 20:00:00,11.07,80.40,0.000,229.30,1.46,0.0,3.93,0.00,-185.51,0.0,0,0,0,0,0,287.00,0.00,264.00,277.00,9.50,3.95
2014-12-01 20:10:00,11.16,76.81,0.000,235.90,2.94,0.0,3.25,0.00,-188.56,0.5,0,0,0,0,0,171.00,0.00,138.00,179.00,9.13,3.91
2014-12-01 20:20:00,11.53,66.32,0.000,229.40,1.99,0.0,5.28,0.00,-188.56,0.5,0,0,0,0,0,198.00,0.00,184.00,229.00,9.26,3.87
2014-12-01 20:30:00,11.56,57.72,0.001,231.60,2.36,0.0,3.25,0.00,-188.22,0.0,0,0,0,0,0,99.00,0.00,93.00,102.00,9.00,3.77
2014-12-01 20:40:00,11.81,56.84,0.000,228.10,2.70,0.0,2.57,0.00,-188.22,0.0,0,0,0,0,0,73.00,0.00,69.00,76.00,9.16,3.73
2014-12-01 20:50:00,11.80,58.40,0.003,227.10,2.21,0.0,2.57,0.00,-188.22,0.0,0,0,0,0,0,25.00,0.00,45.00,26.00,9.37,3.65
2014-12-01 21:00:00,11.23,65.40,0.001,232.80,1.18,0.0,1.90,0.00,-191.60,0.0,0,0,0,0,0,24.00,0.00,23.00,51.00,9.49,3.57
2014-12-01 21:10:00,11.35,65.74,0.002,225.00,1.23,0.0,1.22,0.00,-191.27,0.0,0,0,0,0,0,25.00,0.00,23.00,25.00,9.86,3.48
2014-12-01 21:20:00,11.06,61.61,0.000,214.60,1.60,0.0,1.56,0.00,-193.97,0.0,0,0,0,0,0,24.00,0.00,23.00,0.00,9.94,3.52
2014-12-01 21:30:00,10.49,61.14,0.000,217.80,1.58,0.0,0.54,0.00,-195.33,0.0,0,0,0,0,0,0.00,0.00,0.00,26.00,9.16,3.37
2014-12-01 21:40:00,10.81,58.60,0.000,216.10,1.62,0.0,0.20,0.00,-198.71,0.0,0,0,0,0,0,25.00,0.00,23.00,25.00,9.36,3.31
2014-12-01 21:50:00,10.98,57.62,0.000,215.10,1.80,0.0,0.54,0.00,-202.44,0.0,0,0,0,0,0,0.00,0.00,0.00,0.00,9.45,3.24
2014-12-01 22:00:00,11.15,58.09,0.000,213.60,1.56,0.0,0.54,0.00,-206.16,0.0,0,0,0,0,0,24.00,0.00,23.00,26.00,9.79,3.33
2014-12-01 22:10:00,11.32,58.02,0.000,225.00,2.41,0.0,0.20,0.00,-206.50,0.0,0,0,0,0,0,0.00,0.00,0.00,0.00,10.12,3.25
2014-12-01 22:20:00,9.75,73.22,0.000,230.70,2.58,0.0,0.54,0.00,-207.18,1.0,0,0,0,0,0,474.00,449.00,369.00,452.00,7.72,3.08
2014-12-01 22:30:00,9.33,76.64,0.000,230.80,2.34,0.0,1.22,0.00,-211.58,0.5,0,0,0,0,0,506.00,37.00,448.00,511.00,7.60,3.04
2014-12-01 22:40:00,8.35,79.15,0.000,221.00,2.58,0.0,2.57,0.00,-216.66,0.0,0,0,0,0,0,194.00,0.00,184.00,177.00,6.86,3.00
2014-12-01 22:50:00,8.10,81.40,0.000,218.20,2.36,0.0,1.90,0.00,-223.43,0.5,0,0,0,0,0,146.00,0.00,138.00,179.00,6.69,2.91
2014-12-01 23:00:00,8.02,82.90,0.000,225.40,2.54,0.0,1.90,0.00,-230.20,0.5,0,0,0,0,0,446.00,0.00,401.00,462.00,6.66,2.83
2014-12-01 23:10:00,8.18,81.60,0.000,217.20,2.50,0.0,3.25,0.00,-234.26,0.0,0,0,0,0,0,416.00,0.00,360.00,414.00,6.66,2.83
2014-12-01 23:20:00,8.43,78.71,0.000,228.90,2.95,0.0,2.57,0.00,-234.94,0.5,0,0,0,0,0,266.00,0.00,220.00,253.00,6.82,2.67
2014-12-01 23:30:00,8.40,79.69,0.001,216.60,4.35,0.0,2.91,0.00,-236.97,0.0,0,0,0,0,0,145.00,0.00,136.00,151.00,7.08,2.72
2014-12-01 23:40:00,8.11,80.10,0.000,230.90,3.70,0.0,1.90,0.00,-237.98,0.0,0,0,0,0,0,97.00,0.00,91.00,126.00,6.87,2.52
2014-12-01 23:50:00,7.95,79.11,0.000,233.70,3.96,0.0,2.57,0.00,-237.64,0.5,0,0,0,0,0,121.00,0.00,114.00,126.00,6.30,2.52
2014-12-02 00:00:00,7.79,79.11,0.000,231.30,4.00,0.0,1.90,0.00,-238.66,0.5,0,0,0,0,0,264.00,0.00,231.00,255.00,6.18,2.40
2014-12-02 00:10:00,7.62,79.15,0.000,226.10,4.23,0.0,2.91,0.00,-238.32,0.5,0,0,0,0,0,223.00,0.00,206.00,227.00,6.09,2.11
2014-12-02 00:20:00,7.09,81.90,0.001,221.00,4.65,0.0,0.54,0.00,-244.08,0.5,0,0,0,0,0,440.00,1.00,420.00,460.00,5.77,1.99
2014-12-02 00:30:00,7.31,83.10,0.001,226.80,3.05,0.0,3.25,0.00,-249.83,0.5,0,0,0,0,0,585.00,3.00,537.00,632.00,5.94,1.67
2014-12-02 00:40:00,6.94,81.80,0.000,227.80,2.80,0.0,4.27,0.00,-248.48,1.0,0,0,0,0,0,633.00,5.00,571.00,651.00,5.62,0.85
2014-12-02 00:50:00,6.82,80.60,0.000,231.00,3.67,0.0,4.60,0.00,-247.80,0.5,0,0,0,0,0,503.00,34.00,446.00,533.00,5.46,-0.79
2014-12-02 01:00:00,6.74,81.30,0.000,230.70,4.02,0.0,4.94,0.00,-248.14,0.5,0,0,0,0,0,382.00,0.00,342.00,403.00,5.33,7.60
2014-12-02 01:10:00,6.67,82.70,0.000,228.00,3.12,0.0,4.60,0.00,-250.17,1.0,0,0,0,0,0,398.00,0.00,364.00,428.00,5.30,7.12
2014-12-02 01:20:00,6.59,80.60,0.000,237.60,4.54,0.0,5.96,0.00,-248.48,0.5,0,0,0,0,0,367.00,0.00,341.00,378.00,5.06,6.51
2014-12-02 01:30:00,6.67,80.10,0.000,231.20,4.41,0.0,5.28,0.00,-249.15,0.0,0,0,0,0,0,298.00,129.00,268.00,300.00,5.15,5.56
2014-12-02 01:40:00,7.09,77.12,0.003,226.40,4.01,0.0,4.60,0.00,-249.83,0.0,0,0,0,0,0,200.00,189.00,179.00,199.00,5.73,4.25
2014-12-02 01:50:00,6.60,76.81,0.000,238.60,4.96,0.0,2.57,0.00,-252.54,0.5,0,0,0,0,0,119.00,109.00,111.00,125.00,4.86,3.35
2014-12-02 02:00:00,6.51,75.59,0.000,223.50,5.10,0.0,3.93,0.00,-254.23,0.0,0,0,0,0,0,119.00,109.00,89.00,124.00,5.15,2.23
2014-12-02 02:10:00,6.76,77.66,0.001,227.40,4.53,0.0,3.25,0.00,-252.54,0.0,0,0,0,0,0,96.00,94.00,105.00,99.00,5.23,1.33
2014-12-02 02:20:00,6.27,77.22,0.000,228.00,5.29,0.0,3.59,0.00,-253.22,0.5,0,0,0,0,0,95.00,110.00,96.00,100.00,4.91,-1.05
2014-12-02 02:30:00,6.39,78.17,0.000,227.50,5.39,0.0,2.91,0.00,-253.22,0.0,0,0,0,0,0,96.00,95.00,89.00,100.00,4.78,-159.30
2014-12-02 02:40:00,6.30,75.56,0.000,224.50,5.29,0.0,3.93,0.00,-252.20,1.0,0,0,0,0,484,168.00,175.00,135.00,201.00,4.41,-169.50
2014-12-02 02:50:00,6.06,77.01,0.000,233.10,6.00,0.0,3.59,0.00,-251.86,0.0,0,0,0,0,14,193.00,191.00,181.00,175.00,4.57,-171.90
2014-12-02 03:00:00,6.64,69.57,0.000,225.20,5.66,0.0,3.59,0.00,-251.52,0.0,0,0,0,0,8,168.00,158.00,136.00,175.00,4.98,-175.00
2014-12-02 03:10:00,6.93,66.08,0.002,227.80,4.92,0.0,3.25,0.00,-253.89,0.0,0,0,0,0,0,95.00,93.00,91.00,100.00,5.36,-176.00
2014-12-02 03:20:00,6.02,74.27,0.000,223.70,4.58,0.0,1.22,0.00,-256.94,0.5,0,0,0,0,0,72.00,47.00,68.00,73.00,4.53,-177.70
2014-12-02 03:30:00,5.44,77.62,0.000,225.30,5.39,0.0,2.57,0.00,-254.23,1.0,0,0,0,0,15,121.00,143.00,114.00,127.00,3.79,-178.70
2014-12-02 03:40:00,5.94,70.01,0.000,229.20,5.72,0.0,3.25,0.00,-258.63,0.0,0,0,0,0,104,352.00,359.00,305.00,353.00,4.41,-179.10
2014-12-02 03:50:00,5.81,71.12,0.000,224.90,5.46,0.0,1.90,0.00,-259.31,0.0,0,0,0,0,0,129.00,123.00,134.00,150.00,4.33,-179.80
2014-12-02 04:00:00,4.87,75.69,0.000,228.60,5.15,0.0,2.57,0.00,-260.32,0.0,0,0,0,0,0,96.00,77.00,68.00,74.00,3.38,-180.20
2014-12-02 04:10:00,5.48,70.68,0.001,221.70,4.32,0.0,2.57,0.00,-261.34,0.5,0,0,0,0,0,72.00,77.00,69.00,75.00,4.12,-180.60
2014-12-02 04:20:00,5.86,63.07,0.001,223.00,4.62,0.0,3.93,0.00,-262.36,0.0,0,0,0,0,0,72.00,46.00,68.00,74.00,4.41,-181.00
2014-12-02 04:30:00,5.94,61.04,0.003,219.00,4.50,0.0,1.22,0.00,-263.71,0.0,0,0,0,0,0,48.00,47.00,45.00,25.00,4.74,-180.50
2014-12-02 04:40:00,6.23,59.41,0.004,222.00,3.90,0.0,1.90,0.00,-263.71,0.0,0,0,0,0,0,24.00,31.00,46.00,50.00,5.15,-179.40
2014-12-02 04:50:00,6.31,64.05,0.000,224.10,4.47,0.0,0.54,0.00,-263.03,0.0,0,0,0,0,0,24.00,31.00,23.00,24.00,5.15,-179.70
2014-12-02 05:00:00,5.36,69.60,0.003,213.90,4.65,0.0,0.54,0.00,-268.11,0.0,0,0,0,0,0,23.00,15.00,23.00,25.00,4.49,-180.20
2014-12-02 05:10:00,5.57,66.01,0.002,224.70,4.27,0.0,1.90,0.00,-266.08,0.0,0,0,0,0,0,0.00,16.00,23.00,0.00,4.78,-180.20
2014-12-02 05:20:00,5.57,67.77,0.000,221.70,2.38,0.0,0.54,0.00,-268.11,0.0,0,0,0,0,0,24.00,15.00,0.00,25.00,4.74,-180.40
2014-12-02 05:30:00,5.53,65.44,0.000,224.60,4.08,0.0,0.54,0.00,-265.40,0.0,0,0,0,0,0,24.00,0.00,22.00,25.00,4.82,-181.00
2014-12-02 05:40:00,5.44,65.67,0.002,227.70,3.67,0.0,1.56,0.00,-266.76,0.0,0,0,0,0,0,0.00,16.00,0.00,0.00,4.57,-181.20
2014-12-02 05:50:00,5.81,63.41,0.002,227.20,2.03,0.0,1.22,0.00,-268.11,0.0,0,0,0,0,0,24.00,0.00,23.00,24.00,4.82,-180.30
2014-12-02 06:00:00,5.61,67.74,0.000,228.00,4.41,0.0,0.54,0.00,-268.45,0.0,0,0,0,0,0,0.00,15.00,0.00,0.00,4.04,-180.80
2014-12-02 06:10:00,5.36,69.36,0.001,234.60,3.56,0.0,0.88,0.00,-270.48,0.0,0,0,0,0,0,24.00,16.00,23.00,25.00,4.20,-180.10
2014-12-02 06:20:00,5.48,69.91,0.000,221.20,3.77,0.0,0.54,0.00,-274.54,0.0,0,0,0,0,0,23.00,15.00,23.00,25.00,4.04,-180.20
2014-12-02 06:30:00,5.20,70.79,0.001,220.30,3.65,0.0,1.22,0.00,-275.90,0.0,0,0,0,0,0,24.00,31.00,23.00,25.00,4.12,-180.30
2014-12-02 06:40:00,4.58,75.52,0.000,222.20,4.83,0.0,1.22,0.00,-275.22,0.5,0,0,0,0,0,72.00,62.00,45.00,49.00,2.97,-180.40
2014-12-02 06:50:00,3.72,81.10,0.001,226.50,3.00,0.0,1.90,0.00,-276.91,1.0,0,0,0,0,0,434.00,473.00,381.00,456.00,2.56,-180.30
2014-12-02 07:00:00,3.10,85.70,0.002,210.20,3.10,0.0,2.91,0.00,-279.96,0.5,0,0,0,0,0,759.00,794.00,736.00,819.00,2.19,-179.60
2014-12-02 07:10:00,3.30,86.80,0.009,206.00,3.05,0.0,2.57,0.00,-281.31,0.5,0,0,0,0,0,508.00,474.00,471.00,512.00,2.44,-182.60
2014-12-02 07:20:00,3.96,83.70,0.029,206.10,3.03,0.0,3.93,0.00,-283.34,0.0,0,0,0,0,0,250.00,244.00,241.00,293.00,2.97,-183.20
2014-12-02 07:30:00,4.58,79.25,0.026,219.00,4.47,0.0,2.91,0.00,-284.36,0.0,0,0,0,0,0,138.00,120.00,109.00,121.00,3.38,-184.00
2014-12-02 07:40:00,4.25,81.90,0.008,225.80,3.74,0.0,2.91,0.00,-284.36,0.5,0,0,0,0,0,115.00,121.00,121.00,146.00,2.97,-183.80
2014-12-02 07:50:00,3.71,82.60,0.035,214.60,4.01,0.0,2.57,0.00,-289.10,0.5,0,0,0,0,0,344.00,366.00,321.00,347.00,2.60,-182.40
2014-12-02 08:00:00,3.22,85.30,0.044,193.40,2.91,0.0,3.25,0.00,-291.13,0.0,0,0,0,0,0,305.00,278.00,264.00,319.00,2.60,-183.70
2014-12-02 08:10:00,3.51,84.00,0.154,189.30,2.58,0.0,3.93,0.00,-286.05,0.0,0,0,0,0,0,138.00,136.00,151.00,146.00,2.89,-184.20
2014-12-02 08:20:00,3.88,81.10,0.119,203.80,3.43,0.0,3.25,0.00,-284.70,0.0,0,0,0,0,0,115.00,106.00,108.00,121.00,3.22,-183.40